Robinson, IL

1:15 AM CDT on August 20, 2017 (GMT -0500)
Robinson Municipal

Weather History for KRSV - January, 2014

Change the Weather History Date:

Sunday, January 19, 2014

  Actual Average (KLWV) Record (KLWV)
Temperature  
Mean Temperature 30 °F -  
Max Temperature 40 °F 35 °F 63 °F (2006)
Min Temperature 22 °F 20 °F 3 °F (2003)
Degree Days  
Heating Degree Days 34    
Moisture  
Dew Point 26 °F    
Average Humidity 78    
Maximum Humidity 92    
Minimum Humidity 66    
Precipitation  
Precipitation 0.00 in - - ()
Sea Level Pressure  
Sea Level Pressure 29.92 in    
Wind  
Wind Speed 15 mph (WSW)    
Max Wind Speed 23 mph    
Max Gust Speed 31 mph    
Visibility 10 miles    
Events      
Averages and records for this station are not official NWS values.
T = Trace of Precipitation, MM = Missing Value Source: NWS Daily Summary

Daily Weather History Graph

Daily Weather History Graph

Search for Another Location

Airport or City:

Trip Planner

Search our weather history database for the weather conditions in past years. The results will help you decide how hot, cold, wet, or windy it might be!

Date:

Astronomy

Jan. 19, 2014 Rise Set
Actual Time 7:06 AM CST 4:56 PM CST
Civil Twilight 6:37 AM CST 5:25 PM CST
Nautical Twilight 6:04 AM CST 5:58 PM CST
Astronomical Twilight 5:32 AM CST 6:30 PM CST
Moon 8:32 PM CST (1/19) 8:38 AM CST (1/19)
Length of Visible Light 10h 48m
Length of Day
9h 50m
Waning Gibbous, 89% of the Moon is Illuminated
Jan 19
Waning Gibbous
Jan 23
Last Quarter
Jan 30
New
Feb 6
First Quarter
Feb 14
Full

Hourly Weather History & Observations

Time (CST) Temp. Windchill Dew Point Humidity Pressure Visibility Wind Dir Wind Speed Gust Speed Precip Events Conditions
12:15 AM 32.0 °F 22.1 °F 29.8 °F 92% 29.86 in 10.0 mi NW 13.8 mph - N/A   Overcast
12:35 AM 31.6 °F 20.7 °F 28.2 °F 87% 29.87 in 10.0 mi NNW 16.1 mph 23.0 mph N/A   Overcast
12:55 AM 29.5 °F 16.2 °F 26.2 °F 88% 29.89 in 10.0 mi NW 21.9 mph 27.6 mph N/A   Overcast
1:15 AM 26.6 °F 12.0 °F 23.9 °F 90% 29.92 in 7.0 mi NNW 23.0 mph 31.1 mph N/A   Overcast
1:35 AM 25.7 °F 12.7 °F 23.0 °F 89% 29.92 in 10.0 mi NW 17.3 mph 23.0 mph N/A   Overcast
1:55 AM 25.7 °F 13.1 °F 22.8 °F 89% 29.94 in 10.0 mi NNW 16.1 mph 20.7 mph N/A   Overcast
2:15 AM 25.7 °F 14.6 °F 22.6 °F 88% 29.95 in 10.0 mi NW 12.7 mph 18.4 mph N/A   Overcast
2:35 AM 25.5 °F 12.9 °F 22.1 °F 87% 29.96 in 10.0 mi NW 16.1 mph 21.9 mph N/A   Overcast
2:55 AM 25.3 °F 13.6 °F 21.6 °F 86% 29.98 in 10.0 mi NW 13.8 mph 19.6 mph N/A   Overcast
3:15 AM 24.8 °F 13.4 °F 21.0 °F 86% 29.98 in 10.0 mi NNW 12.7 mph - N/A   Overcast
3:35 AM 24.6 °F 13.2 °F 21.0 °F 86% 29.98 in 10.0 mi NW 12.7 mph - N/A   Overcast
3:55 AM 23.9 °F 11.2 °F 20.1 °F 85% 30.00 in 10.0 mi NW 15.0 mph 19.6 mph N/A   Overcast
4:15 AM 23.5 °F 11.8 °F 19.9 °F 86% 30.01 in 10.0 mi NW 12.7 mph 16.1 mph N/A   Overcast
4:35 AM 23.5 °F 13.0 °F 19.9 °F 86% 30.01 in 10.0 mi NW 10.4 mph - N/A   Overcast
4:55 AM 23.7 °F 13.3 °F 20.1 °F 86% 30.02 in 10.0 mi NW 10.4 mph - N/A   Overcast
5:15 AM 23.7 °F 12.1 °F 20.1 °F 86% 30.02 in 10.0 mi NW 12.7 mph 17.3 mph N/A   Overcast
5:35 AM 23.0 °F 11.7 °F 20.1 °F 89% 30.03 in 10.0 mi West 11.5 mph - N/A   Overcast
5:55 AM 22.6 °F 11.3 °F 19.4 °F 87% 30.03 in 10.0 mi NW 11.5 mph - N/A   Overcast
6:15 AM 22.3 °F 10.8 °F 19.4 °F 89% 30.04 in 10.0 mi West 11.5 mph - N/A   Overcast
6:35 AM 22.3 °F 11.5 °F 19.4 °F 89% 30.06 in 10.0 mi WNW 10.4 mph - N/A   Overcast
6:55 AM 22.6 °F 16.5 °F 19.6 °F 88% 30.04 in 10.0 mi West 4.6 mph - N/A   Overcast
7:15 AM 23.0 °F 14.7 °F 19.9 °F 88% 30.05 in 10.0 mi West 6.9 mph - N/A   Overcast
7:35 AM 23.5 °F 16.4 °F 20.3 °F 87% 30.04 in 10.0 mi WSW 5.8 mph - N/A   Overcast
7:55 AM 23.9 °F 15.0 °F 20.8 °F 88% 30.04 in 10.0 mi SW 8.1 mph - N/A   Overcast
8:15 AM 24.4 °F 14.2 °F 20.8 °F 86% 30.04 in 10.0 mi WSW 10.4 mph - N/A   Overcast
8:35 AM 24.8 °F 14.0 °F 21.2 °F 86% 30.05 in 10.0 mi SW 11.5 mph - N/A   Overcast
8:55 AM 25.2 °F 15.1 °F 21.4 °F 86% 30.05 in 10.0 mi WSW 10.4 mph - N/A   Overcast
9:15 AM 25.7 °F 13.1 °F 22.1 °F 86% 30.06 in 10.0 mi WSW 16.1 mph 21.9 mph N/A   Overcast
9:35 AM 26.2 °F 14.2 °F 22.5 °F 86% 30.05 in 10.0 mi SW 15.0 mph - N/A   Overcast
9:55 AM 27.1 °F 15.4 °F 23.0 °F 84% 30.05 in 10.0 mi SW 15.0 mph 21.9 mph N/A   Overcast
10:15 AM 27.0 °F 15.6 °F 23.0 °F 85% 30.05 in 10.0 mi WSW 13.8 mph - N/A   Mostly Cloudy
10:35 AM 28.0 °F 17.0 °F 23.2 °F 82% 30.04 in 10.0 mi SW 13.8 mph - N/A   Scattered Clouds
10:55 AM 29.1 °F 18.4 °F 23.7 °F 80% 30.04 in 10.0 mi SW 13.8 mph - N/A   Clear
11:15 AM 30.4 °F 20.0 °F 24.4 °F 79% 30.02 in 10.0 mi SW 13.8 mph 18.4 mph N/A   Clear
11:35 AM 31.3 °F 21.6 °F 24.8 °F 77% 30.02 in 10.0 mi SW 12.7 mph - N/A   Clear
11:55 AM 32.4 °F 23.5 °F 25.9 °F 77% 30.00 in 10.0 mi SSW 11.5 mph 18.4 mph N/A   Clear
12:15 PM 33.4 °F 23.9 °F 26.2 °F 75% 29.99 in 10.0 mi SSW 13.8 mph - N/A   Clear
12:35 PM 34.3 °F 25.5 °F 26.6 °F 73% 29.97 in 10.0 mi SW 12.7 mph - N/A   Clear
12:55 PM 35.1 °F 25.2 °F 26.8 °F 72% 29.96 in 10.0 mi SW 16.1 mph - N/A   Clear
1:15 PM 36.1 °F 27.3 °F 27.3 °F 70% 29.94 in 10.0 mi SW 13.8 mph - N/A   Clear
1:35 PM 36.7 °F 27.6 °F 27.7 °F 70% 29.93 in 10.0 mi SW 15.0 mph - N/A   Clear
1:55 PM 37.4 °F 28.2 °F 27.9 °F 68% 29.92 in 10.0 mi SW 16.1 mph 21.9 mph N/A   Clear
2:15 PM 37.9 °F 28.5 °F 28.4 °F 69% 29.90 in 10.0 mi SW 17.3 mph 23.0 mph N/A   Clear
2:35 PM 38.5 °F 28.9 °F 28.4 °F 67% 29.89 in 10.0 mi SSW 18.4 mph - N/A   Clear
2:55 PM 39.2 °F 31.6 °F 28.9 °F 67% 29.89 in 10.0 mi SW 12.7 mph 23.0 mph N/A   Clear
3:15 PM 39.4 °F 31.1 °F 29.1 °F 67% 29.87 in 10.0 mi SSW 15.0 mph - N/A   Clear
3:35 PM 39.4 °F 30.1 °F 29.5 °F 68% 29.87 in 10.0 mi SSW 18.4 mph 21.9 mph N/A   Clear
3:55 PM 39.4 °F 29.8 °F 29.1 °F 67% 29.86 in 10.0 mi SSW 19.6 mph 25.3 mph N/A   Clear
4:15 PM 39.4 °F 31.1 °F 29.3 °F 67% 29.85 in 10.0 mi SSW 15.0 mph 20.7 mph N/A   Clear
4:35 PM 39.0 °F 31.0 °F 29.5 °F 69% 29.85 in 10.0 mi SSW 13.8 mph - N/A   Clear
4:55 PM 38.7 °F 30.1 °F 28.8 °F 68% 29.84 in 10.0 mi SSW 15.0 mph 20.7 mph N/A   Clear
5:15 PM 38.5 °F 29.9 °F 28.6 °F 68% 29.83 in 10.0 mi SSW 15.0 mph - N/A   Clear
5:35 PM 38.3 °F 30.5 °F 28.9 °F 69% 29.82 in 10.0 mi South 12.7 mph - N/A   Clear
5:55 PM 37.9 °F 30.0 °F 29.1 °F 71% 29.81 in 10.0 mi SSW 12.7 mph 21.9 mph N/A   Clear
6:15 PM 37.9 °F 29.6 °F 29.1 °F 71% 29.80 in 10.0 mi SSW 13.8 mph - N/A   Clear
6:35 PM 38.3 °F 28.1 °F 29.1 °F 70% 29.80 in 10.0 mi SSW 20.7 mph 28.8 mph N/A   Clear
6:55 PM 38.8 °F 29.4 °F 28.4 °F 66% 29.80 in 10.0 mi SSW 18.4 mph 26.5 mph N/A   Clear
7:15 PM 38.3 °F 29.7 °F 28.4 °F 68% 29.79 in 10.0 mi SSW 15.0 mph 19.6 mph N/A   Clear
7:35 PM 38.5 °F 30.3 °F 28.4 °F 67% 29.80 in 10.0 mi SW 13.8 mph 23.0 mph N/A   Clear
7:55 PM 38.3 °F 29.7 °F 28.8 °F 69% 29.80 in 10.0 mi SW 15.0 mph 21.9 mph N/A   Clear
8:15 PM 38.1 °F 29.1 °F 28.9 °F 70% 29.80 in 10.0 mi SW 16.1 mph - N/A   Clear
8:35 PM 38.3 °F 29.0 °F 29.3 °F 70% 29.80 in 10.0 mi SW 17.3 mph - N/A   Clear
8:55 PM 38.3 °F 28.7 °F 29.5 °F 71% 29.79 in 10.0 mi SW 18.4 mph 26.5 mph N/A   Clear
9:15 PM 38.5 °F 29.2 °F 29.8 °F 71% 29.79 in 10.0 mi SW 17.3 mph 25.3 mph N/A   Clear
9:35 PM 38.7 °F 28.6 °F 30.0 °F 71% 29.78 in 10.0 mi SW 20.7 mph 26.5 mph N/A   Clear
9:55 PM 38.8 °F 29.4 °F 30.2 °F 71% 29.78 in 10.0 mi SW 18.4 mph 25.3 mph N/A   Clear
10:15 PM 38.8 °F 29.4 °F 30.2 °F 71% 29.78 in 10.0 mi SW 18.4 mph 25.3 mph N/A   Clear
10:35 PM 39.2 °F 29.8 °F 30.2 °F 70% 29.78 in 10.0 mi SW 18.4 mph 25.3 mph N/A   Clear
10:55 PM 39.2 °F 29.6 °F 30.2 °F 70% 29.77 in 10.0 mi SW 19.6 mph 24.2 mph N/A   Clear
11:15 PM 39.6 °F 30.3 °F 30.2 °F 69% 29.76 in 10.0 mi SW 18.4 mph 25.3 mph N/A   Clear
11:35 PM 39.9 °F 30.5 °F 30.2 °F 68% 29.76 in 10.0 mi SW 19.6 mph 24.2 mph N/A   Clear
11:55 PM 40.5 °F 31.5 °F 30.2 °F 67% 29.75 in 10.0 mi SW 18.4 mph - N/A   Clear